Tracking 17782 objects as of 26-July-2016
HD Live streaming from Space Station
objects crossing your sky now

SDS-4

Track SDS-4 now!
10-day predictions
SDS-4 is classified as:


NORAD ID: 38339
Int'l Code: 2012-025C
Perigee: 662.7 km
Apogee: 672.1 km
Inclination: 98.4 °
Period: 97.9 minutes
Semi major axis: 7038 km
RCS: 0.47 m2 (medium)
Launch date: May 17, 2012
Source: Japan (JPN)
Launch site: TANEGASHIMA SPACE CENTER (TNSTA)
Your satellite tracking list
Your tracking list is empty





NASA's NSSDC Master Catalog

Two Line Element Set (TLE):
1 38339U 12025C   16208.04478179  .00000143  00000-0  32498-4 0  9991
2 38339  98.3642 186.5005 0006700 219.4769 140.5949 14.70263323224670
Source of the keplerian elements: AFSPC

N2YO: 653